Regional Weather Roundup
Issued by NWS

Home | Current Version | Previous Version | Graphics & Text | Print | Product List | Glossary Off
Versions: 1 2 3 4 5 6 7 8 9 10 11 12 13 14 15 16 17 18 19 20 21 22 23 24 25 26 27 28 29 30 31 32 33 34 35 36 37 38 39 40 41 42 43 44 45 46 47 48 49 50

000
ASUS43 KFSD 311710
RWRSD

WEATHER ROUNDUP FOR SOUTH DAKOTA
NATIONAL WEATHER SERVICE SIOUX FALLS SD
1100 AM CST SAT JAN 31 2015

NOTE: "FAIR" INDICATES FEW OR NO CLOUDS BELOW 12,000 FEET WITH NO
SIGNIFICANT WEATHER AND/OR OBSTRUCTIONS TO VISIBILITY.


SDZ001>005-009-010-012>017-311800-
NORTHWEST AND NORTH CENTRAL SOUTH DAKOTA

CITY           SKY/WX    TMP DP  RH WIND       PRES   REMARKS
BUFFALO          N/A     21  19  92 E17       29.98R WCI   7
FAITH            N/A     22  19  89 E13       30.10R WCI  10
MOBRIDGE       CLOUDY    22  18  85 E13       30.18R WCI  10
$$

SDZ012>016-024>037-041>051-057-063-072>074-311800-
SOUTHWEST AND SOUTH CENTRAL SOUTH DAKOTA

CITY           SKY/WX    TMP DP  RH WIND       PRES   REMARKS
RAPID CTY ARPT CLOUDY    27  26  96 SE8       30.02S FOG     WCI  19
PIERRE         CLOUDY    22  20  92 E20       30.14S FOG     WCI   7
CUSTER         CLOUDY    27  20  75 E7        29.91S WCI  19
ELLSWORTH AFB  FRZ DRZL  27  25  93 SE12      30.00  VSB 1/4 WCI  16
PHILIP         FOG       25  24  96 E10       30.09R VSB 1/4 WCI  15
PINE RIDGE     CLOUDY    31  25  78 E12       29.98S WCI  22
WINNER         FRZ RAIN  26  24  92 NE16      30.08F VSB<1/4 WCI  14
$$

SDZ004>011-016>023-039-040-311800-
NORTHEAST SOUTH DAKOTA

CITY           SKY/WX    TMP DP  RH WIND       PRES   REMARKS
ABERDEEN       CLOUDY    16   9  74 NE17G29   30.26R WCI   0
WATERTOWN      CLOUDY    17  15  92 NE18      30.18R FOG     WCI   1
$$

SDZ017-020-022-023-036>040-048>070-311800-
SOUTHEAST SOUTH DAKOTA

CITY           SKY/WX    TMP DP  RH WIND       PRES   REMARKS
SIOUX FALLS    CLOUDY    26  24  92 NE15      30.13F FOG     WCI  14
HURON          CLOUDY    23  19  85 NE15      30.19R WCI  10
CHAMBERLAIN    FOG       25  24  97 NE10G17   30.11F VSB 1   WCI  15
MITCHELL       CLOUDY    26  24  92 NE16      30.16R FOG     WCI  14
YANKTON        CLOUDY    30  27  86 NE15      30.10S WCI  19
$$

ABBREVIATIONS USED IN REMARKS
   TC - TEMPERATURE IN CELSIUS
  WCI - WIND CHILL INDEX
   HX - HEAT INDEX
  VSB - VISIBILITY




USA.gov is the U.S. government's official web portal to all federal, state and local government web resources and services.